Location: Unspecified
(43.1763°N, 79.4719°W)
Time: 09:53:15
(UTC-05:00)

ISS - Visible Passes

Search period start: 18 December 2017 00:00
Search period end: 28 December 2017 00:00
Orbit: 402 x 406 km, 51.6° (Epoch: 19 December)

Date Brightness Start Highest point End Pass type
(mag) Time Alt. Az. Time Alt. Az. Time Alt. Az.
24 Dec -0.4 07:03:58 10° SSE 07:05:49 14° SE 07:07:40 10° E visible
26 Dec -1.8 06:54:23 10° SSW 06:57:19 32° SE 07:00:18 10° ENE visible
27 Dec -0.9 06:02:53 10° S 06:05:09 18° SE 06:07:25 10° E visible
